QAC8893 YPPH-OTHH

Flight info

Callsign QAC8893
Flight time N/A
Altitude 34000
Route OPEGA DCT UXORA DCT 22S105E 15S100E 09S095E/N0490F360 07S093E 05S091E DCT DOGAR M641 TANUG/N0485F380 M641 KAT DCT JATON DCT DEMON DCT MDI M300 LOTAV DCT EMURU N563 SODEX DCT NOBTO DCT SIGMO DCT UMIBU DCT MEKRI DCT TOVOX DCT DINEX DCT KIVAM DCT IMTAL DCT KIPEM DCT EMEXA DCT MIVAL DCT KUTER DCT NONBA DCT KINAP DCT KIPIK DCT SOMAP DCT PURIN DCT DASIK DCT IMKAT DCT PASID DCT HH811 DCT ML34L
Aircraft B77L/H-SDE1E2E3FGHIJ2J3J4J5M1RWXY/LB1D1

Departure

Time N/A
Airport Perth International Airport (YPPH)

Arrival

Time 2026-05-03 21:15
Airport Hamad International Airport (OTHH)
Time Latitude Longitude Altitude Speed Heading
2026-05-03 20:15 22.87038 57.58137 37894 ft 458 kts 297°
2026-05-03 20:15 22.89977 57.52002 37916 ft 458 kts 297°
2026-05-03 20:16 22.92906 57.45876 37918 ft 457 kts 297°
2026-05-03 20:16 22.95831 57.39751 37914 ft 457 kts 297°
2026-05-03 20:17 22.98752 57.33631 37914 ft 456 kts 297°
2026-05-03 20:17 23.01670 57.27513 37922 ft 457 kts 297°
2026-05-03 20:18 23.04593 57.21387 37921 ft 457 kts 297°
2026-05-03 20:18 23.07514 57.15255 37932 ft 457 kts 297°
2026-05-03 20:19 23.10411 57.09166 37932 ft 456 kts 296°
2026-05-03 20:19 23.13319 57.03043 37894 ft 456 kts 297°
2026-05-03 20:20 23.16223 56.96924 37925 ft 456 kts 296°
2026-05-03 20:20 23.19130 56.90789 37904 ft 457 kts 296°
2026-05-03 20:21 23.22039 56.84645 37917 ft 457 kts 296°
2026-05-03 20:21 23.24949 56.78488 37913 ft 457 kts 296°
2026-05-03 20:22 23.27854 56.72333 37875 ft 457 kts 296°
2026-05-03 20:22 23.30753 56.66186 37894 ft 456 kts 296°
2026-05-03 20:23 23.33643 56.60048 37879 ft 456 kts 296°
2026-05-03 20:23 23.36528 56.53912 37883 ft 455 kts 296°
2026-05-03 20:24 23.39410 56.47775 37873 ft 456 kts 296°
2026-05-03 20:24 23.42293 56.41631 37901 ft 456 kts 296°
2026-05-03 20:25 23.45174 56.35483 37885 ft 455 kts 296°
2026-05-03 20:25 23.48029 56.29379 37862 ft 455 kts 296°
2026-05-03 20:26 23.50900 56.23236 37875 ft 455 kts 296°
2026-05-03 20:26 23.53766 56.17094 37887 ft 455 kts 296°
2026-05-03 20:27 23.56626 56.10948 37892 ft 454 kts 296°
2026-05-03 20:27 23.59467 56.04797 37877 ft 454 kts 296°
2026-05-03 20:28 23.62303 55.98645 37856 ft 454 kts 296°
2026-05-03 20:28 23.65136 55.92496 37874 ft 453 kts 296°
2026-05-03 20:29 23.67964 55.86350 37867 ft 453 kts 295°
2026-05-03 20:29 23.70787 55.80214 37867 ft 453 kts 296°
2026-05-03 20:30 23.73631 55.74083 37860 ft 453 kts 296°
2026-05-03 20:30 23.76475 55.67954 37852 ft 453 kts 296°
2026-05-03 20:31 23.79313 55.61820 37860 ft 452 kts 295°
2026-05-03 20:31 23.82144 55.55692 37850 ft 452 kts 295°
2026-05-03 20:32 23.84887 55.49524 37840 ft 451 kts 293°
2026-05-03 20:32 23.87401 55.43295 37844 ft 451 kts 292°
2026-05-03 20:33 23.89958 55.37022 37844 ft 452 kts 293°
2026-05-03 20:33 23.92622 55.30789 37845 ft 453 kts 297°
2026-05-03 20:34 23.95955 55.24927 37826 ft 455 kts 301°
2026-05-03 20:34 23.99402 55.19116 37830 ft 456 kts 301°
2026-05-03 20:35 24.02827 55.13278 37825 ft 456 kts 301°
2026-05-03 20:35 24.06242 55.07420 37822 ft 457 kts 301°
2026-05-03 20:36 24.09656 55.01559 37811 ft 457 kts 301°
2026-05-03 20:36 24.13072 54.95693 37824 ft 457 kts 301°
2026-05-03 20:37 24.16497 54.89833 37795 ft 457 kts 301°
2026-05-03 20:37 24.19918 54.83978 37791 ft 456 kts 301°
2026-05-03 20:38 24.23329 54.78128 37787 ft 455 kts 301°
2026-05-03 20:38 24.26736 54.72275 37774 ft 455 kts 300°
2026-05-03 20:39 24.30138 54.66422 37787 ft 455 kts 300°
2026-05-03 20:39 24.33513 54.60612 37774 ft 455 kts 300°
2026-05-03 20:40 24.36888 54.54749 37801 ft 454 kts 298°
2026-05-03 20:40 24.39517 54.48493 37808 ft 451 kts 289°
2026-05-03 20:41 24.41266 54.41892 37813 ft 450 kts 283°
2026-05-03 20:41 24.42716 54.35205 37783 ft 451 kts 283°
2026-05-03 20:42 24.44175 54.28506 37785 ft 452 kts 283°
2026-05-03 20:42 24.45656 54.21806 37779 ft 452 kts 283°
2026-05-03 20:43 24.47142 54.15103 37790 ft 452 kts 283°
2026-05-03 20:43 24.48624 54.08400 37785 ft 452 kts 283°
2026-05-03 20:44 24.50102 54.01699 37786 ft 452 kts 283°
2026-05-03 20:44 24.51577 53.94995 37789 ft 452 kts 283°
2026-05-03 20:45 24.53092 53.88301 37791 ft 452 kts 284°
2026-05-03 20:45 24.54778 53.81651 37791 ft 452 kts 284°
2026-05-03 20:46 24.56488 53.74998 37804 ft 452 kts 284°
2026-05-03 20:46 24.58162 53.68389 37796 ft 452 kts 284°
2026-05-03 20:47 24.59830 53.61731 37792 ft 452 kts 284°
2026-05-03 20:47 24.61492 53.55070 37795 ft 452 kts 284°
2026-05-03 20:48 24.63150 53.48416 37799 ft 451 kts 284°
2026-05-03 20:48 24.64805 53.41758 37799 ft 451 kts 284°
2026-05-03 20:49 24.66458 53.35098 37798 ft 451 kts 284°
2026-05-03 20:49 24.68107 53.28442 37800 ft 451 kts 284°
2026-05-03 20:50 24.69750 53.21799 37205 ft 451 kts 284°
2026-05-03 20:50 24.70569 53.18480 36542 ft 448 kts 283°
2026-05-03 20:50 24.71384 53.15177 35768 ft 447 kts 283°
2026-05-03 20:50 24.72198 53.11872 34900 ft 448 kts 283°
2026-05-03 20:51 24.73014 53.08553 33968 ft 451 kts 283°
2026-05-03 20:51 24.73834 53.05212 32877 ft 454 kts 283°
2026-05-03 20:51 24.74657 53.01857 31825 ft 455 kts 284°
2026-05-03 20:51 24.75484 52.98483 30754 ft 458 kts 284°
2026-05-03 20:52 24.76310 52.95110 29975 ft 454 kts 284°
2026-05-03 20:52 24.77129 52.91767 29093 ft 451 kts 284°
2026-05-03 20:52 24.77941 52.88451 28292 ft 447 kts 284°
2026-05-03 20:52 24.78744 52.85168 27552 ft 442 kts 284°
2026-05-03 20:53 24.79539 52.81911 26828 ft 438 kts 284°
2026-05-03 20:53 24.80315 52.78727 26142 ft 435 kts 285°
2026-05-03 20:53 24.81094 52.75528 25444 ft 432 kts 285°
2026-05-03 20:53 24.81868 52.72345 24746 ft 430 kts 285°
2026-05-03 20:54 24.82639 52.69173 24054 ft 428 kts 285°
2026-05-03 20:54 24.84170 52.62862 22577 ft 425 kts 285°
2026-05-03 20:54 24.84930 52.59728 21874 ft 422 kts 285°
2026-05-03 20:55 24.85682 52.56621 21201 ft 418 kts 285°
2026-05-03 20:55 24.86427 52.53539 20563 ft 415 kts 285°
2026-05-03 20:55 24.87163 52.50494 20049 ft 409 kts 285°
2026-05-03 20:55 24.87890 52.47482 19544 ft 406 kts 285°
2026-05-03 20:56 24.88379 52.45457 19207 ft 404 kts 285°
2026-05-03 20:56 24.89061 52.42459 18704 ft 404 kts 282°
2026-05-03 20:56 24.89492 52.39397 18214 ft 405 kts 277°
2026-05-03 20:56 24.89623 52.35303 17491 ft 403 kts 271°
2026-05-03 20:57 24.89631 52.33222 17107 ft 401 kts 272°
2026-05-03 20:57 24.89661 52.30208 16716 ft 395 kts 272°
2026-05-03 20:57 24.89702 52.27211 16339 ft 388 kts 272°
2026-05-03 20:57 24.89603 52.24221 15823 ft 384 kts 267°
2026-05-03 20:58 24.89381 52.21355 15322 ft 378 kts 266°
2026-05-03 20:58 24.89159 52.18544 14784 ft 348 kts 267°
2026-05-03 20:58 24.88965 52.16022 14285 ft 323 kts 267°
2026-05-03 20:58 24.88786 52.13626 13790 ft 306 kts 268°
2026-05-03 20:59 24.88617 52.11305 13304 ft 305 kts 268°
2026-05-03 20:59 24.88447 52.08977 12774 ft 306 kts 267°
2026-05-03 20:59 24.88275 52.06640 12282 ft 306 kts 267°
2026-05-03 20:59 24.88103 52.04301 11771 ft 306 kts 267°
2026-05-03 21:00 24.87930 52.01964 11280 ft 306 kts 267°
2026-05-03 21:00 24.87816 52.00419 10985 ft 305 kts 267°
2026-05-03 21:00 24.87593 51.97442 10380 ft 276 kts 267°
2026-05-03 21:00 24.87439 51.95383 9966 ft 268 kts 267°
2026-05-03 21:01 24.87287 51.93325 9570 ft 271 kts 267°
2026-05-03 21:01 24.87133 51.91260 9102 ft 270 kts 267°
2026-05-03 21:01 24.86979 51.89204 8676 ft 269 kts 267°
2026-05-03 21:01 24.86825 51.87156 8238 ft 268 kts 266°
2026-05-03 21:02 24.86671 51.85113 7819 ft 267 kts 266°
2026-05-03 21:02 24.86517 51.83074 7393 ft 267 kts 266°
2026-05-03 21:02 24.86364 51.81041 6972 ft 266 kts 266°
2026-05-03 21:02 24.86210 51.79014 6567 ft 265 kts 266°
2026-05-03 21:03 24.86057 51.76990 6131 ft 265 kts 266°
2026-05-03 21:03 24.85903 51.74975 5715 ft 264 kts 266°
2026-05-03 21:03 24.85750 51.72960 5284 ft 264 kts 267°
2026-05-03 21:03 24.85597 51.70948 5059 ft 266 kts 267°
2026-05-03 21:04 24.85443 51.68915 5004 ft 266 kts 267°
2026-05-03 21:04 24.85289 51.66908 4990 ft 258 kts 267°
2026-05-03 21:04 24.85140 51.64979 4980 ft 247 kts 267°
2026-05-03 21:04 24.85065 51.63130 4981 ft 241 kts 278°
2026-05-03 21:05 24.85675 51.61425 5009 ft 243 kts 307°
2026-05-03 21:05 24.86961 51.60220 4929 ft 246 kts 329°
2026-05-03 21:05 24.88597 51.59648 4648 ft 251 kts 349°
2026-05-03 21:05 24.90341 51.59474 4295 ft 252 kts 354°
2026-05-03 21:06 24.92092 51.59349 3893 ft 252 kts 354°
2026-05-03 21:06 24.93831 51.59210 3620 ft 254 kts 354°
2026-05-03 21:06 24.95560 51.59058 3577 ft 243 kts 354°
2026-05-03 21:06 24.97197 51.58909 3496 ft 230 kts 354°
2026-05-03 21:07 24.98809 51.58780 3497 ft 230 kts 360°
2026-05-03 21:07 25.00325 51.59266 3501 ft 235 kts 31°
2026-05-03 21:07 25.01435 51.60628 3509 ft 241 kts 60°
2026-05-03 21:07 25.01912 51.62377 3506 ft 245 kts 78°
2026-05-03 21:08 25.02127 51.64253 3505 ft 249 kts 81°
2026-05-03 21:08 25.02315 51.66154 3499 ft 247 kts 79°
2026-05-03 21:08 25.02917 51.67842 3486 ft 231 kts 45°
2026-05-03 21:08 25.04143 51.68751 3514 ft 199 kts 14°
2026-05-03 21:09 25.05389 51.68969 3492 ft 167 kts
2026-05-03 21:09 25.06482 51.68892 3488 ft 150 kts 343°
2026-05-03 21:09 25.07428 51.68518 3489 ft 142 kts 337°
2026-05-03 21:09 25.08343 51.68119 3487 ft 141 kts 337°
2026-05-03 21:10 25.09256 51.67715 3496 ft 142 kts 337°
2026-05-03 21:10 25.10186 51.67305 3352 ft 148 kts 337°
2026-05-03 21:10 25.11135 51.66885 3037 ft 144 kts 338°
2026-05-03 21:10 25.12037 51.66488 2841 ft 138 kts 339°
2026-05-03 21:11 25.12933 51.66095 2670 ft 139 kts 339°
2026-05-03 21:11 25.13835 51.65697 2482 ft 140 kts 340°
2026-05-03 21:11 25.14736 51.65301 2296 ft 139 kts 340°
2026-05-03 21:11 25.15627 51.64908 2107 ft 138 kts 340°
2026-05-03 21:12 25.16517 51.64516 1941 ft 138 kts 340°
2026-05-03 21:12 25.17410 51.64123 1753 ft 138 kts 340°
2026-05-03 21:12 25.18298 51.63732 1566 ft 137 kts 340°
2026-05-03 21:12 25.19185 51.63342 1368 ft 137 kts 340°
2026-05-03 21:13 25.20069 51.62953 1200 ft 137 kts 339°
2026-05-03 21:13 25.20962 51.62561 1013 ft 139 kts 339°
2026-05-03 21:13 25.21869 51.62165 851 ft 140 kts 339°
2026-05-03 21:13 25.22776 51.61763 723 ft 142 kts 338°
2026-05-03 21:14 25.23698 51.61350 454 ft 141 kts 338°
2026-05-03 21:14 25.24588 51.60962 246 ft 136 kts 338°
2026-05-03 21:14 25.25461 51.60576 53 ft 131 kts 336°
2026-05-03 21:14 25.26207 51.60241 28 ft 101 kts 339°
2026-05-03 21:15 25.26665 51.60038 28 ft 52 kts 339°
2026-05-03 21:15 25.26918 51.59949 26 ft 25 kts 348°
2026-05-03 21:15 25.27065 51.59955 26 ft 9 kts 10°
2026-05-03 21:15 25.27076 51.59958 26 ft 4 kts 11°
2026-05-03 21:16 25.27108 51.60042 30 ft 18 kts 130°
2026-05-03 21:16 25.27040 51.60144 39 ft 18 kts 82°
2026-05-03 21:16 25.27085 51.60274 27 ft 18 kts 68°
2026-05-03 21:16 25.27132 51.60402 25 ft 18 kts 68°
2026-05-03 21:17 25.27179 51.60532 28 ft 18 kts 67°
2026-05-03 21:17 25.27211 51.60620 29 ft 18 kts 68°
2026-05-03 21:17 25.27274 51.60791 30 ft 18 kts 68°
2026-05-03 21:17 25.27320 51.60922 27 ft 18 kts 69°
2026-05-03 21:18 25.27367 51.61051 27 ft 18 kts 66°
2026-05-03 21:18 25.27415 51.61181 27 ft 18 kts 68°
2026-05-03 21:18 25.27460 51.61312 30 ft 18 kts 70°
2026-05-03 21:18 25.27507 51.61442 28 ft 18 kts 60°
2026-05-03 21:19 25.27620 51.61452 25 ft 18 kts 336°
2026-05-03 21:19 25.27705 51.61414 29 ft 8 kts 332°
2026-05-03 21:19 25.27711 51.61356 26 ft 9 kts 268°
2026-05-03 21:19 25.27745 51.61296 29 ft 11 kts 335°
2026-05-03 21:20 25.27791 51.61271 27 ft 7 kts 327°
2026-05-03 21:20 25.27805 51.61212 26 ft 9 kts 261°
2026-05-03 21:20 25.27792 51.61174 27 ft 3 kts 248°
2026-05-03 21:20 25.27782 51.61148 29 ft 4 kts 248°
2026-05-03 21:21 25.27780 51.61144 28 ft 0 kts 248°